Regional Weather Roundup
Issued by NWS

Home | Current Version | Previous Version | Graphics & Text | Print | Product List | Glossary On
Versions: 1 2 3 4 5 6 7 8 9 10 11 12 13 14 15 16 17 18 19 20 21 22 23 24 25 26 27 28 29 30 31 32 33 34 35 36 37 38 39 40 41 42 43 44 45 46 47 48 49 50
000
ASUS43 KDTX 041901
RWRMI
MICHIGAN HOURLY REGIONAL WEATHER ROUNDUP
NATIONAL WEATHER SERVICE DETROIT/PONTIAC MI
300 PM EDT SAT JUL 04 2015

NOTE: "FAIR" INDICATES FEW OR NO CLOUDS BELOW 12,000 FEET WITH NO
SIGNIFICANT WEATHER AND/OR OBSTRUCTION TO VISIBILITY.

MIZ047>049-052>055-059>063-066>070-074>076-081>083-042000-
SOUTHEAST LOWER MICHIGAN

CITY           SKY/WX    TMP DP  RH WIND       PRES   REMARKS
ADRIAN         SUNNY     77  53  43 SW6       30.02S
ALMA           SUNNY     80  55  42 SW6       29.99S
ANN ARBOR      SUNNY     78  57  48 S7        30.01R
BAD AXE        CLOUDY    79  50  36 W7        29.98S
CARO           SUNNY     80  57  45 W5        29.98R
DETROIT CITY   SUNNY     76  52  43 SE6       30.00S
DETROIT        SUNNY     79  52  38 VRB3      30.01R
FLINT          SUNNY     80  55  42 VRB7      30.00S
GROSSE ILE     SUNNY     75  55  50 S8        29.99R
HILLSDALE      MOSUNNY   77  55  47 S3        30.02F
HOWELL         SUNNY     77  53  42 W5        30.01R

CITY           SKY/WX    TMP DP  RH WIND       PRES   REMARKS
JACKSON        SUNNY     77  56  48 VRB5      30.02R
LAMBERTVILLE   SUNNY     78  48  35 CALM      30.01F
LANSING        SUNNY     78  53  41 S8        30.01R
LAPEER         FAIR      78  50  37 SW3       30.00S
MASON          SUNNY     75  55  49 S3        30.01S
MONROE         SUNNY     77  52  42 CALM      30.00S
MT. CLEMENS    MOSUNNY   76  56  49 SE7       29.98S
PONTIAC        PTSUNNY   76  53  44 VRB6      30.00R
PORT HOPE        N/A     68  62  81 E9        29.97R
PORT HURON     SUNNY     75  55  50 CALM      29.99S
TRI CITIES     SUNNY     81  54  39 W6        29.98F
MIDLAND        PTSUNNY   81  57  44 W3        29.96F
TROY           SUNNY     79  51  37 N3        30.01S
SAGINAW HB     SUNNY     81  50  34 S9        29.98S
$$
MIZ043>046-050>051-056>058-064>065-071>073-077>080-042000-
SOUTHWEST LOWER MICHIGAN

CITY           SKY/WX    TMP DP  RH WIND       PRES   REMARKS
BATTLE CREEK   SUNNY     78  55  44 NW6       30.02S
BENTON HARBOR  SUNNY     75  57  53 W7        30.02S
BIG RAPIDS     PTSUNNY   79  55  42 S3        29.98S
COLDWATER      SUNNY     75  56  50 CALM      30.02S
FREMONT        FAIR      80  53  39 NW6       29.98F
HOLLAND        SUNNY     77  58  51 W8        30.02S
GRAND RAPIDS   CLOUDY    79  55  43 SW8       30.00S
IONIA          FAIR      80  55  42 W3        30.00S
KALAMAZOO      SUNNY     79  56  45 CALM      30.01S
LUDINGTON      SUNNY     71  61  71 SW7       30.00S
MARSHALL       SUNNY     77  56  48 SW6       30.01S
MOUNT PLEASANT MOSUNNY   81  58  46 S7        29.97S
MUSKEGON       CLOUDY    73  59  61 SW8       30.01S
SOUTH HAVEN    SUNNY     74  57  54 W6        30.02S
$$
MIZ016>042-042000-
NORTHERN LOWER MICHIGAN

CITY           SKY/WX    TMP DP  RH WIND       PRES   REMARKS
ALPENA         MOSUNNY   80  58  46 SE9       29.96S
BEAVER ISLAND  MOSUNNY   74  58  58 NW5       29.99R
BELLAIRE       MOSUNNY   77  58  52 W6        29.97S
CADILLAC       MOSUNNY   78  60  52 NW7       29.98S
CHARLEVOIX     MOSUNNY   71  58  63 N6        30.02R
FRANKFORT      SUNNY     76  56  50 W7        29.99S
GAYLORD        PTSUNNY   77  55  46 VRB7      29.99R
GRAYLING       MOSUNNY   81  57  43 NW5       29.99R
HARBOR SPRINGS MOSUNNY   68  60  75 S7        29.98S
HOUGHTON LAKE  MOSUNNY   80  57  45 W8        29.98S
MANISTEE       SUNNY     73  57  56 W7        30.00R
OSCODA         MOSUNNY   78  59  51 SE7       29.95S
PELLSTON       MOSUNNY   78  55  44 NE6       29.98R
ROGERS CITY    SUNNY     69  61  74 N8        29.98F
TRAVERSE CITY  PTSUNNY   76  60  57 NE8       29.96S
$$
MIZ007>008-015-042000-
EASTERN UPPER MICHIGAN

CITY           SKY/WX    TMP DP  RH WIND       PRES   REMARKS
KINROSS        SUNNY     72  57  60 NW8       29.97S
MACKINAC ISLAN MOSUNNY   69  60  74 SW7       29.98R
NEWBERRY       SUNNY     72  58  61 W5        29.98S
S. S. MARIE    SUNNY     71  58  63 W10       29.96S
$$
MIZ004>006-011>014-085-042000-
CENTRAL UPPER MICHIGAN

CITY           SKY/WX    TMP DP  RH WIND       PRES   REMARKS
MANISTIQUE     MOSUNNY   70  59  69 S8        29.98R
ESCANABA       MOSUNNY   73  57  56 S10       29.97S
MENOMINEE      MOSUNNY   73  61  64 SE8       29.98S
SAWYER-GWINN   SUNNY     70  57  64 NE6       30.01R
$$
MIZ001>003-009>011-084-042000-
WESTERN UPPER MICHIGAN

CITY           SKY/WX    TMP DP  RH WIND       PRES   REMARKS
IRON MOUNTAIN  PTSUNNY   80  56  43 CALM      29.97S
HOUGHTON       MOSUNNY   71  56  58 SE7       30.00R
COPPER HARBOR    N/A     63  54  72 CALM      29.99S
IRONWOOD       MOSUNNY   77  57  50 E7        29.94S
$$

ABBREVIATIONS USED IN REMARKS
   TC - TEMPERATURE IN CELSIUS
  WCI - WIND CHILL INDEX
   HX - HEAT INDEX
  VSB - VISIBILITY




USA.gov is the U.S. government's official web portal to all federal, state and local government web resources and services.